Content
SEND FEEDBACK

Daily
Averages
Monthly
Summary
United States of America

CHELSEA, MICHIGAN


Home > North America > United States > Michigan
Elevation: 900 feet     Latitude: 42 19N     Longitude: 084 01W

WEATHER
 
SELECT A DAY
Number of Records: 203,415;   Date Range: 1/1/95 - 7/29/14
 
SHARE

PRINT THIS DATA

[ ← Previous Day ]
WEATHER ALMANAC - JUNE 19, 2013
[ Next Day → ]
[ °C ]   °F
Weather ElementAverageHighLow
Temperature62.1 °F73.9 °F (5:53 pm)48.9 °F (3:53 am)
Dewpoint47.7 °F53.1 °F (5:53 pm)39 °F (3:53 am)
Humidity61 %89 % (11:53 pm)42 % (3:53 pm)
Barometer30.14 in30.17 in (9:53 am)30.09 in (1:53 am)
Wind Speed4.5 mph8.1 mph (5:53 pm)
Weather ElementAverage
Visibility10 mi
Wind DirectionENE (73 °)

Weather ElementTotal
Precipitation---
Heating Degree Days3.6 (Base 65)
Growing Degree Days11.4 (Base 50)
Averaged from 23 records on June 19, 2013
WEATHER CONDITIONS BREAKOUT
WIND DIRECTION BREAKOUT
WEATHER BY HOUR - JUNE 19, 2013
[ °C ]   °F
Local TimeTemperatureDewpointHumidityBarometerVisibilityWind DirectionWind SpeedGust SpeedPrecipitationEventsConditions
1:53 AM52.0 °F41.0 °F66 %30.09 in10.0 miNE (40°)3.5 mphClear
2:53 AM50.0 °F39.9 °F68 %30.09 in10.0 miNE (40°)4.6 mphClear
3:53 AM48.9 °F39.0 °F69 %30.10 in10.0 miNNE (30°)4.6 mphClear
4:53 AM48.9 °F39.9 °F71 %30.10 in10.0 miNE (40°)4.6 mphClear
5:53 AM48.9 °F41.0 °F74 %30.12 in10.0 miNE (40°)4.6 mphClear
6:53 AM51.1 °F44.1 °F77 %30.14 in10.0 miNE (50°)4.6 mphClear
7:53 AM55.9 °F45.0 °F67 %30.15 in10.0 miENE (60°)6.9 mphClear
8:53 AM61.0 °F46.9 °F60 %30.16 in10.0 miEast (80°)5.8 mphClear
9:53 AM64.0 °F48.9 °F58 %30.17 in10.0 miEast (90°)5.8 mphClear
10:53 AM66.9 °F51.1 °F57 %30.16 in10.0 miEast (80°)3.5 mphClear
11:53 AM69.1 °F48.9 °F49 %30.16 in10.0 miNNW (340°)3.5 mphClear
12:53 PM71.1 °F48.9 °F45 %30.17 in10.0 miCalmClear
1:53 PM72.0 °F51.1 °F48 %30.15 in10.0 miSE (140°)5.8 mphClear
2:53 PM73.0 °F50.0 °F44 %30.14 in10.0 miVariable6.9 mphPartly Cloudy
3:53 PM73.0 °F48.9 °F42 %30.13 in10.0 miVariable4.6 mphClear
4:53 PM73.0 °F50.0 °F44 %30.12 in10.0 miVariable5.8 mphClear
5:53 PM73.9 °F53.1 °F48 %30.11 in10.0 miSouth (180°)8.1 mphPartly Cloudy
6:53 PM72.0 °F52.0 °F49 %30.11 in10.0 miSouth (180°)6.9 mphClear
7:53 PM69.1 °F53.1 °F57 %30.12 in10.0 miSE (140°)8.1 mphClear
8:53 PM64.9 °F53.1 °F65 %30.13 in10.0 miSSE (150°)5.8 mphClear
9:53 PM61.0 °F52.0 °F72 %30.15 in10.0 miCalmClear
10:53 PM55.0 °F50.0 °F83 %30.17 in10.0 miCalmClear
11:53 PM53.1 °F50.0 °F89 %30.17 in10.0 miCalmClear
Hourly data recorded from KARB, located miles away from Chelsea, Michigan







STORIES FROM OUR PARTNERS